Weather History for KFET - October, 2013

Change the Weather History Date:

Wednesday, October 16, 2013

  Actual Average Record
Temperature  
Mean Temperature 50 °F -  
Max Temperature 57 °F 65 °F 83 °F (1961)
Min Temperature 41 °F 40 °F 25 °F (1976)
Degree Days  
Heating Degree Days 15    
Moisture  
Dew Point 39 °F    
Average Humidity 72    
Maximum Humidity 96    
Minimum Humidity 39    
Precipitation  
Precipitation 0.00 in - - ()
Sea Level Pressure  
Sea Level Pressure 30.03 in    
Wind  
Wind Speed 10 mph (WNW)    
Max Wind Speed 17 mph    
Max Gust Speed 18 mph    
Visibility 10 miles    
Events      
Averages and records for this station are not official NWS values.
T = Trace of Precipitation, MM = Missing Value Source: NWS Daily Summary

Daily Weather History Graph

Daily Weather History Graph

Search for Another Location

Airport or City:

Trip Planner

Search our weather history database for the weather conditions in past years. The results will help you decide how hot, cold, wet, or windy it might be!

Date:

Astronomy

Oct. 16, 2013 Rise Set
Actual Time 7:39 AM CDT 6:43 PM CDT
Civil Twilight 7:11 AM CDT 7:10 PM CDT
Nautical Twilight 6:39 AM CDT 7:43 PM CDT
Astronomical Twilight 6:07 AM CDT 8:15 PM CDT
Moon 5:24 PM CDT (10/16) 5:07 AM CDT (10/16)
Length of Visible Light 11h 59m
Length of Day
11h 03m
Waxing Gibbous, 94% of the Moon is Illuminated
Oct 16
Waxing Gibbous
Oct 18
Full
Oct 26
Last Quarter
Nov 3
New
Nov 9
First Quarter

Hourly Weather History & Observations

Time (CDT) Temp. Windchill Dew Point Humidity Pressure Visibility Wind Dir Wind Speed Gust Speed Precip Events Conditions
12:15 AM 45.0 °F 37.9 °F 41.4 °F 87% 30.07 in 10.0 mi WNW 16.1 mph - N/A   Overcast
12:35 AM 44.6 °F 37.2 °F 41.5 °F 89% 30.07 in 10.0 mi WNW 17.3 mph - N/A   Overcast
12:55 AM 44.8 °F 38.3 °F 41.4 °F 88% 30.06 in 10.0 mi WNW 13.8 mph - N/A   Overcast
1:15 AM 44.6 °F 38.1 °F 41.5 °F 89% 30.06 in 10.0 mi WNW 13.8 mph - N/A   Overcast
1:35 AM 44.6 °F 38.1 °F 41.0 °F 87% 30.06 in 10.0 mi WNW 13.8 mph - N/A   Overcast
1:55 AM 44.8 °F 38.7 °F 40.6 °F 85% 30.06 in 10.0 mi WNW 12.7 mph - N/A   Overcast
2:15 AM 44.8 °F 38.7 °F 40.5 °F 85% 30.07 in 10.0 mi WNW 12.7 mph 17.3 mph N/A   Overcast
2:35 AM 44.8 °F 38.7 °F 40.1 °F 84% 30.07 in 10.0 mi WNW 12.7 mph - N/A   Overcast
2:55 AM 44.6 °F 38.4 °F 40.1 °F 84% 30.07 in 10.0 mi West 12.7 mph - N/A   Overcast
3:15 AM 44.6 °F 38.1 °F 40.1 °F 84% 30.07 in 10.0 mi West 13.8 mph - N/A   Overcast
3:35 AM 44.6 °F 38.8 °F 40.1 °F 84% 30.06 in 10.0 mi WNW 11.5 mph - N/A   Overcast
3:55 AM 44.6 °F 39.2 °F 40.1 °F 84% 30.06 in 10.0 mi West 10.4 mph - N/A   Overcast
4:15 AM 44.6 °F 39.7 °F 40.3 °F 85% 30.06 in 10.0 mi WNW 9.2 mph - N/A   Overcast
4:35 AM 44.6 °F 38.8 °F 40.1 °F 84% 30.06 in 10.0 mi WNW 11.5 mph - N/A   Overcast
4:55 AM 44.6 °F 39.2 °F 40.1 °F 84% 30.05 in 10.0 mi WNW 10.4 mph - N/A   Overcast
5:15 AM 44.6 °F 39.2 °F 40.1 °F 84% 30.06 in 10.0 mi WNW 10.4 mph - N/A   Overcast
5:35 AM 44.6 °F 40.2 °F 39.7 °F 83% 30.05 in 10.0 mi WNW 8.1 mph - N/A   Overcast
5:55 AM 44.4 °F 40.0 °F 40.1 °F 85% 30.06 in 10.0 mi West 8.1 mph - N/A   Overcast
6:15 AM 44.2 °F 39.7 °F 40.1 °F 85% 30.06 in 10.0 mi West 8.1 mph - N/A   Overcast
6:35 AM 44.4 °F 39.5 °F 39.9 °F 84% 30.07 in 10.0 mi West 9.2 mph - N/A   Overcast
6:55 AM 44.2 °F 40.3 °F 40.1 °F 85% 30.07 in 10.0 mi West 6.9 mph - N/A   Overcast
7:15 AM 44.1 °F 39.5 °F 40.3 °F 87% 30.06 in 10.0 mi WNW 8.1 mph - N/A   Overcast
7:35 AM 43.9 °F 39.3 °F 40.1 °F 87% 30.06 in 10.0 mi West 8.1 mph - N/A   Overcast
7:55 AM 43.7 °F 39.7 °F 40.1 °F 87% 30.06 in 10.0 mi West 6.9 mph - N/A   Mostly Cloudy
8:15 AM 43.7 °F 38.6 °F 40.3 °F 88% 30.07 in 10.0 mi West 9.2 mph - N/A   Mostly Cloudy
8:35 AM 43.9 °F 38.8 °F 40.5 °F 88% 30.07 in 10.0 mi West 9.2 mph - N/A   Mostly Cloudy
8:55 AM 44.4 °F 39.5 °F 40.6 °F 87% 30.07 in 10.0 mi West 9.2 mph - N/A   Mostly Cloudy
9:15 AM 45.0 °F 40.1 °F 41.2 °F 87% 30.07 in 10.0 mi WNW 9.2 mph - N/A   Scattered Clouds
9:35 AM 45.7 °F 39.8 °F 40.6 °F 83% 30.07 in 10.0 mi WNW 12.7 mph 16.1 mph N/A   Mostly Cloudy
9:55 AM 46.4 °F 41.1 °F 40.3 °F 79% 30.08 in 10.0 mi WNW 11.5 mph - N/A   Mostly Cloudy
10:15 AM 47.3 °F - 39.6 °F 74% 30.09 in 10.0 mi WNW 12.7 mph - N/A   Mostly Cloudy
10:35 AM 47.3 °F - 39.2 °F 73% 30.08 in 10.0 mi WNW 11.5 mph - N/A   Overcast
10:55 AM 47.5 °F - 39.4 °F 73% 30.08 in 10.0 mi WNW 12.7 mph - N/A   Overcast
11:15 AM 48.2 °F - 38.8 °F 70% 30.08 in 10.0 mi WNW 11.5 mph - N/A   Overcast
11:35 AM 50.2 °F - 39.0 °F 66% 30.08 in 10.0 mi WNW 12.7 mph - N/A   Scattered Clouds
11:55 AM 51.1 °F - 36.7 °F 58% 30.07 in 10.0 mi NW 9.2 mph - N/A   Clear
12:15 PM 52.3 °F - 36.9 °F 56% 30.07 in 10.0 mi West 10.4 mph - N/A   Clear
12:35 PM 53.2 °F - 34.2 °F 48% 30.06 in 10.0 mi NNW 11.5 mph - N/A   Clear
12:55 PM 53.6 °F - 33.3 °F 46% 30.06 in 10.0 mi WNW 10.4 mph 17.3 mph N/A   Clear
1:15 PM 54.5 °F - 34.2 °F 46% 30.05 in 10.0 mi NW 6.9 mph - N/A   Clear
1:35 PM 55.2 °F - 33.6 °F 44% 30.04 in 10.0 mi NW 8.1 mph - N/A   Clear
1:55 PM 55.6 °F - 33.4 °F 43% 30.03 in 10.0 mi NW 6.9 mph - N/A   Clear
2:15 PM 56.1 °F - 33.3 °F 42% 30.02 in 10.0 mi NW 8.1 mph - N/A   Clear
2:35 PM 57.2 °F - 35.1 °F 43% 30.01 in 10.0 mi WNW 9.2 mph - N/A   Clear
2:55 PM 56.8 °F - 32.7 °F 40% 30.01 in 10.0 mi WNW 9.2 mph - N/A   Clear
3:15 PM 57.0 °F - 33.3 °F 41% 30.00 in 10.0 mi NNW 6.9 mph - N/A   Clear
3:35 PM 57.0 °F - 33.3 °F 41% 30.00 in 10.0 mi WNW 4.6 mph - N/A   Clear
3:55 PM 57.4 °F - 33.3 °F 40% 29.99 in 10.0 mi West 6.9 mph - N/A   Clear
4:15 PM 57.2 °F - 32.9 °F 40% 29.99 in 10.0 mi NW 8.1 mph - N/A   Clear
4:35 PM 57.4 °F - 33.4 °F 40% 29.98 in 10.0 mi NNW 4.6 mph - N/A   Clear
4:55 PM 57.2 °F - 33.4 °F 41% 29.98 in 10.0 mi NW 8.1 mph 18.4 mph N/A   Clear
5:15 PM 56.8 °F - 32.2 °F 39% 29.98 in 10.0 mi NW 5.8 mph - N/A   Clear
5:35 PM 56.3 °F - 32.4 °F 40% 29.97 in 10.0 mi WNW 6.9 mph - N/A   Clear
5:55 PM 55.2 °F - 34.7 °F 46% 29.97 in 10.0 mi NW 4.6 mph - N/A   Clear
6:15 PM 53.8 °F - 36.0 °F 51% 29.97 in 10.0 mi Calm Calm - N/A   Clear
6:35 PM 53.1 °F - 35.6 °F 52% 29.98 in 10.0 mi Calm Calm - N/A   Clear
6:55 PM 50.4 °F - 36.9 °F 60% 29.98 in 10.0 mi Calm Calm - N/A   Clear
7:15 PM 48.7 °F - 37.8 °F 66% 29.98 in 10.0 mi Calm Calm - N/A   Clear
7:35 PM 46.4 °F - 40.1 °F 79% 29.98 in 10.0 mi Calm Calm - N/A   Clear
7:55 PM 44.6 °F - 40.5 °F 85% 29.98 in 10.0 mi Calm Calm - N/A   Clear
8:15 PM 44.1 °F - 40.1 °F 86% 29.97 in 10.0 mi Calm Calm - N/A   Clear
8:35 PM 45.3 °F - 41.4 °F 86% 29.97 in 10.0 mi Calm Calm - N/A   Clear
8:55 PM 45.1 °F - 42.8 °F 91% 29.97 in 10.0 mi Calm Calm - N/A   Clear
9:15 PM 46.0 °F - 42.6 °F 88% 29.97 in 10.0 mi Calm Calm - N/A   Clear
9:35 PM 46.6 °F - 41.4 °F 82% 29.96 in 10.0 mi Calm Calm - N/A   Clear
9:55 PM 45.9 °F - 41.5 °F 85% 29.96 in 10.0 mi Calm Calm - N/A   Clear
10:15 PM 45.9 °F - 41.4 °F 84% 29.96 in 10.0 mi Calm Calm - N/A   Clear
10:35 PM 44.4 °F - 41.0 °F 88% 29.96 in 10.0 mi Calm Calm - N/A   Clear
10:55 PM 44.2 °F - 41.7 °F 91% 29.96 in 10.0 mi Calm Calm - N/A   Clear
11:15 PM 43.7 °F - 41.0 °F 90% 29.96 in 10.0 mi Calm Calm - N/A   Clear
11:35 PM 43.2 °F - 40.8 °F 91% 29.96 in 10.0 mi Calm Calm - N/A   Clear
11:55 PM 41.2 °F - 40.1 °F 96% 29.96 in 10.0 mi Calm Calm - N/A   Clear